When you browse on this site, cookies collect data to enhance your experience and personalize the content and advertising you see.
Visit our Privacy Policy to learn more. By continuing to use the site, you agree to this use of cookies and data.
  • Em Portugal
  • Lista de países
  • Para 7 dias
  • Temperatura da água
  • Mapas de satélite
  • Mapa do tempo
  • Widgets de tempo
  • user-avatar
    Iniciar Sessão

    Previsão horária em Konstantinovka

    Hoje, 23 Maio, Quinta-feira

    Tempo Temperatura Precipitação Vento Pressão Humidade
    00:00 +15°C° 0.3 mm 2 m/s 747 mmHg 93%
    01:00 +15°C° 0.1 mm 2 m/s 747 mmHg 93%
    02:00 +14°C° 0.1 mm 2 m/s 747 mmHg 93%
    03:00 +14°C° 0 mm 2 m/s 747 mmHg 94%
    04:00 +14°C° 0 mm 2 m/s 747 mmHg 93%
    05:00 +14°C° 0 mm 2 m/s 746 mmHg 92%
    06:00 +14°C° 0 mm 2 m/s 746 mmHg 91%
    07:00 +16°C° 0 mm 3 m/s 746 mmHg 84%
    08:00 +18°C° 0 mm 3 m/s 746 mmHg 78%
    09:00 +19°C° 0 mm 3 m/s 746 mmHg 72%
    10:00 +20°C° 0.1 mm 3 m/s 746 mmHg 67%
    11:00 +22°C° 0.1 mm 3 m/s 746 mmHg 62%
    12:00 +23°C° 0.1 mm 4 m/s 746 mmHg 57%
    13:00 +23°C° 0.5 mm 4 m/s 746 mmHg 58%
    14:00 +23°C° 0.5 mm 4 m/s 746 mmHg 59%
    15:00 +23°C° 0.5 mm 5 m/s 746 mmHg 60%
    16:00 +23°C° 0.3 mm 4 m/s 746 mmHg 62%
    17:00 +22°C° 0.3 mm 4 m/s 746 mmHg 64%
    18:00 +22°C° 0.3 mm 4 m/s 746 mmHg 66%
    19:00 +21°C° 0.1 mm 3 m/s 746 mmHg 72%
    20:00 +19°C° 0.1 mm 3 m/s 746 mmHg 78%
    21:00 +18°C° 0.1 mm 2 m/s 746 mmHg 84%
    22:00 +17°C° 0 mm 2 m/s 746 mmHg 86%
    23:00 +17°C° 0 mm 2 m/s 746 mmHg 87%

    Amanhã, 24 Maio, Sexta-feira

    Tempo Temperatura Precipitação Vento Pressão Humidade
    00:00 +16°C° 0 mm 2 m/s 746 mmHg 89%
    01:00 +16°C° 0 mm 2 m/s 746 mmHg 90%
    02:00 +15°C° 0 mm 2 m/s 746 mmHg 90%
    03:00 +15°C° 0 mm 2 m/s 746 mmHg 91%
    04:00 +15°C° 0 mm 2 m/s 747 mmHg 90%
    05:00 +16°C° 0 mm 2 m/s 747 mmHg 89%
    06:00 +16°C° 0 mm 2 m/s 747 mmHg 88%
    07:00 +18°C° 0 mm 2 m/s 747 mmHg 81%
    08:00 +20°C° 0 mm 2 m/s 747 mmHg 74%
    09:00 +23°C° 0 mm 2 m/s 748 mmHg 68%
    10:00 +24°C° 0.2 mm 2 m/s 747 mmHg 62%
    11:00 +25°C° 0.2 mm 2 m/s 747 mmHg 57%
    12:00 +26°C° 0.2 mm 1 m/s 747 mmHg 51%
    13:00 +27°C° 0 mm 1 m/s 747 mmHg 49%
    14:00 +27°C° 0 mm 1 m/s 747 mmHg 47%
    15:00 +28°C° 0 mm 1 m/s 747 mmHg 44%
    16:00 +27°C° 0.1 mm 2 m/s 747 mmHg 52%
    17:00 +25°C° 0.1 mm 2 m/s 747 mmHg 59%
    18:00 +24°C° 0.1 mm 2 m/s 747 mmHg 67%
    19:00 +23°C° 0.3 mm 2 m/s 747 mmHg 70%
    20:00 +21°C° 0.3 mm 2 m/s 747 mmHg 74%
    21:00 +19°C° 0.3 mm 2 m/s 747 mmHg 77%
    22:00 +19°C° 0.1 mm 2 m/s 747 mmHg 79%
    23:00 +18°C° 0.1 mm 2 m/s 747 mmHg 81%

    Depois de amanhã, 25 Maio, Sábado

    Tempo Temperatura Precipitação Vento Pressão Humidade
    00:00 +18°C° 0.1 mm 2 m/s 747 mmHg 83%
    01:00 +17°C° 0 mm 2 m/s 747 mmHg 83%
    02:00 +17°C° 0 mm 2 m/s 747 mmHg 83%
    03:00 +16°C° 0 mm 2 m/s 747 mmHg 84%
    04:00 +16°C° 0 mm 2 m/s 747 mmHg 82%
    05:00 +16°C° 0 mm 2 m/s 747 mmHg 81%
    06:00 +16°C° 0 mm 1 m/s 747 mmHg 80%
    07:00 +19°C° 0 mm 1 m/s 747 mmHg 73%
    08:00 +21°C° 0 mm 1 m/s 747 mmHg 66%
    09:00 +23°C° 0 mm 1 m/s 747 mmHg 59%
    10:00 +24°C° 0 mm 2 m/s 747 mmHg 56%
    11:00 +25°C° 0 mm 3 m/s 747 mmHg 54%
    12:00 +26°C° 0 mm 3 m/s 746 mmHg 51%
    13:00 +26°C° 0 mm 3 m/s 746 mmHg 50%
    14:00 +26°C° 0 mm 3 m/s 746 mmHg 50%
    15:00 +27°C° 0 mm 3 m/s 745 mmHg 50%
    16:00 +26°C° 0.3 mm 2 m/s 745 mmHg 54%
    17:00 +25°C° 0.3 mm 2 m/s 745 mmHg 59%
    18:00 +25°C° 0.3 mm 1 m/s 745 mmHg 63%
    19:00 +23°C° 1.2 mm 1 m/s 745 mmHg 70%
    20:00 +21°C° 1.2 mm 1 m/s 745 mmHg 77%
    21:00 +18°C° 1.2 mm 2 m/s 745 mmHg 84%
    22:00 +18°C° 0.6 mm 2 m/s 745 mmHg 85%
    23:00 +18°C° 0.6 mm 3 m/s 744 mmHg 87%

    26 Maio, Domingo

    Tempo Temperatura Precipitação Vento Pressão Humidade
    00:00 +17°C° 0.6 mm 3 m/s 744 mmHg 89%
    01:00 +17°C° 1.1 mm 4 m/s 744 mmHg 89%
    02:00 +17°C° 1.1 mm 4 m/s 744 mmHg 90%
    03:00 +17°C° 1.1 mm 4 m/s 744 mmHg 90%
    04:00 +17°C° 0.4 mm 4 m/s 744 mmHg 89%
    05:00 +17°C° 0.4 mm 4 m/s 745 mmHg 89%
    06:00 +17°C° 0.4 mm 4 m/s 745 mmHg 89%
    07:00 +18°C° 0.3 mm 4 m/s 745 mmHg 86%
    08:00 +19°C° 0.3 mm 5 m/s 745 mmHg 83%
    09:00 +20°C° 0.3 mm 5 m/s 745 mmHg 81%
    10:00 +21°C° 0.6 mm 5 m/s 745 mmHg 73%
    11:00 +23°C° 0.6 mm 5 m/s 746 mmHg 66%
    12:00 +25°C° 0.6 mm 5 m/s 746 mmHg 59%
    13:00 +25°C° 0.5 mm 5 m/s 746 mmHg 59%
    14:00 +26°C° 0.5 mm 6 m/s 746 mmHg 59%
    15:00 +26°C° 0.5 mm 6 m/s 745 mmHg 58%
    16:00 +26°C° 0.2 mm 6 m/s 746 mmHg 61%
    17:00 +25°C° 0.2 mm 5 m/s 746 mmHg 65%
    18:00 +25°C° 0.2 mm 5 m/s 746 mmHg 68%
    19:00 +22°C° 0.6 mm 4 m/s 746 mmHg 74%
    20:00 +21°C° 0.6 mm 4 m/s 747 mmHg 80%
    21:00 +19°C° 0.6 mm 3 m/s 747 mmHg 86%
    22:00 +18°C° 0 mm 3 m/s 747 mmHg 88%
    23:00 +18°C° 0 mm 3 m/s 748 mmHg 90%

    27 Maio, Segunda-feira

    Tempo Temperatura Precipitação Vento Pressão Humidade
    00:00 +17°C° 0 mm 3 m/s 748 mmHg 92%
    01:00 +17°C° 0 mm 3 m/s 749 mmHg 92%
    02:00 +16°C° 0 mm 2 m/s 749 mmHg 93%
    03:00 +16°C° 0 mm 2 m/s 749 mmHg 93%
    04:00 +16°C° 0 mm 2 m/s 750 mmHg 92%
    05:00 +17°C° 0 mm 2 m/s 750 mmHg 91%
    06:00 +17°C° 0 mm 2 m/s 751 mmHg 90%
    07:00 +19°C° 0 mm 3 m/s 751 mmHg 83%
    08:00 +20°C° 0 mm 4 m/s 751 mmHg 76%
    09:00 +22°C° 0 mm 4 m/s 752 mmHg 70%
    10:00 +23°C° 0 mm 4 m/s 752 mmHg 65%
    11:00 +25°C° 0 mm 4 m/s 752 mmHg 60%
    12:00 +26°C° 0 mm 4 m/s 752 mmHg 55%
    13:00 +27°C° 0 mm 4 m/s 752 mmHg 54%
    14:00 +27°C° 0 mm 4 m/s 752 mmHg 53%
    15:00 +28°C° 0 mm 4 m/s 752 mmHg 51%
    16:00 +28°C° 0 mm 3 m/s 752 mmHg 54%
    17:00 +28°C° 0 mm 3 m/s 752 mmHg 57%
    18:00 +27°C° 0 mm 3 m/s 752 mmHg 59%
    19:00 +26°C° 0 mm 2 m/s 753 mmHg 63%
    20:00 +24°C° 0 mm 2 m/s 753 mmHg 66%
    21:00 +21°C° 0 mm 2 m/s 753 mmHg 70%
    22:00 +20°C° 0 mm 2 m/s 753 mmHg 75%
    23:00 +20°C° 0 mm 3 m/s 753 mmHg 79%

    28 Maio, Terça-feira

    Tempo Temperatura Precipitação Vento Pressão Humidade
    00:00 +19°C° 0 mm 3 m/s 754 mmHg 84%
    01:00 +18°C° 0 mm 3 m/s 754 mmHg 83%
    02:00 +18°C° 0 mm 2 m/s 754 mmHg 82%
    03:00 +17°C° 0 mm 2 m/s 754 mmHg 82%
    04:00 +18°C° 0 mm 2 m/s 754 mmHg 81%
    05:00 +18°C° 0 mm 2 m/s 754 mmHg 80%
    06:00 +18°C° 0 mm 2 m/s 754 mmHg 79%
    07:00 +20°C° 0 mm 2 m/s 754 mmHg 73%
    08:00 +22°C° 0 mm 3 m/s 754 mmHg 68%
    09:00 +24°C° 0 mm 3 m/s 754 mmHg 62%
    10:00 +26°C° 0 mm 3 m/s 754 mmHg 57%
    11:00 +27°C° 0 mm 4 m/s 754 mmHg 52%
    12:00 +28°C° 0 mm 4 m/s 754 mmHg 48%
    13:00 +28°C° 0 mm 4 m/s 754 mmHg 48%
    14:00 +29°C° 0 mm 4 m/s 753 mmHg 48%
    15:00 +29°C° 0 mm 4 m/s 753 mmHg 48%
    16:00 +29°C° 0 mm 4 m/s 753 mmHg 52%
    17:00 +29°C° 0 mm 4 m/s 753 mmHg 56%
    18:00 +28°C° 0 mm 3 m/s 752 mmHg 60%
    19:00 +27°C° 0 mm 3 m/s 752 mmHg 64%
    20:00 +25°C° 0 mm 3 m/s 752 mmHg 69%
    21:00 +22°C° 0 mm 3 m/s 752 mmHg 73%
    22:00 +22°C° 0 mm 3 m/s 752 mmHg 74%
    23:00 +21°C° 0 mm 3 m/s 752 mmHg 76%
    Mostrar mais